Regional Weather Roundup
Issued by NWS

Home | Current Version | Previous Version | Graphics & Text | Print | Product List | Glossary On
Versions: 1 2 3 4 5 6 7 8 9 10 11 12 13 14 15 16 17 18 19 20 21 22 23 24 25 26 27 28 29 30 31 32 33 34 35 36 37 38 39 40 41 42 43 44 45 46 47 48 49 50
000
ASUS43 KLMK 260402
RWRKY
KENTUCKY REGIONAL WEATHER ROUNDUP
NATIONAL WEATHER SERVICE LOUISVILLE KY
1100 PM EST SUN JAN 25 2015

NOTE "FAIR" INDICATES FEW OR NO CLOUDS BELOW 12,000 FEET
WITH NO SIGNIFICANT WEATHER AND/OR OBSTRUCTIONS TO VISIBILITY.

KYZ001>023-026-027-061>063-070>075-260500-
WESTERN AND SOUTH CENTRAL KENTUCKY

CITY           SKY/WX    TMP DP  RH WIND       PRES   REMARKS
PADUCAH        CLOUDY    38  35  89 N18G24    29.82R WCI  28
HENDERSON      CLOUDY    37  34  87 NW16G25   29.77R WCI  28
OWENSBORO      CLOUDY    41  40  96 N16       29.73R
HOPKINSVILLE   DRIZZLE   43  41  93 NW10      29.73R
BOWLING GREEN  LGT RAIN  40  37  89 NW5       29.71R
GLASGOW        NOT AVBL
$$

KYZ024-025-028>034-038-045-046-053-260500-
NORTH CENTRAL KENTUCKY

CITY           SKY/WX    TMP DP  RH WIND       PRES   REMARKS
LOUISVILLE/SDF LGT RAIN  40  38  93 N13       29.69R WCI  32
LOUISVILLE/LOU CLOUDY    40  37  89 N10       29.69R WCI  33
FORT KNOX      LGT RAIN  39  39 100 NW10      29.67R WCI  32
$$

KYZ035>037-039>044-047>052-055>060-089>105-260500-
NORTHEAST KENTUCKY

CITY           SKY/WX    TMP DP  RH WIND       PRES   REMARKS
LEXINGTON      CLOUDY    40  40 100 SE5       29.64F
COVINGTON      LGT SNOW  35  32  88 N18       29.68S FOG     WCI  24
FRANKFORT      CLOUDY    40  39  97 NW5       29.64S
$$

KYZ054-064>069-076>088-106>120-260500-
SOUTHEAST KENTUCKY

CITY           SKY/WX    TMP DP  RH WIND       PRES   REMARKS
JACKSON        CLOUDY    43  36  76 SW3       29.65F
LONDON         CLOUDY    43  37  79 S5        29.65F
SOMERSET       NOT AVBL
MIDDLESBORO    NOT AVBL
MONTICELLO     CLOUDY    41  39  92 SW13      29.70R FOG
$$



USA.gov is the U.S. government's official web portal to all federal, state and local government web resources and services.